Tracking 19794 objects as of 21-Jul-2019
HD Live streaming from Space Station
objects crossing your sky now

COSMOS 1275 DEB

Track COSMOS 1275 DEB now!
10-day predictions


NORAD ID: 42184
Int'l Code: 1981-053SY
Perigee: 966.4 km
Apogee: 1,110.1 km
Inclination: 83.0 °
Period: 105.8 minutes
Semi major axis: 7409 km
RCS: Unknown
Launch date: June 4, 1981
Source: Commonwealth of Independent States (former USSR) (CIS)
Launch site: PLESETSK MISSILE AND SPACE COMPLEX (PKMTR)

Note: This is SATELLITE DEBRIS
aabbcc
Your satellite tracking list
Your tracking list is empty




NASA's NSSDC Master Catalog

Two Line Element Set (TLE):
1 42184U 81053SY  19201.31342784  .00000095  00000-0  10184-3 0  9992
2 42184  83.0246 315.1779 0097013 156.4345 234.1135 13.61258338385897
Source of the keplerian elements: AFSPC